• In Portugal
  • List of Countries
  • For 7 days
  • Water Temperature
  • Satellite Maps
  • Weather Map
  • Weather Widgets
  • user-avatar
    Login

    Hourly Weather Side

    Today, 22 June, Friday

    Time Temperature Precipitation Wind Pressure Humidity
    00:00 +25°C° 0 mm 3 mps 759 mmHg 79%
    01:00 +25°C° 0 mm 3 mps 759 mmHg 78%
    02:00 +25°C° 0 mm 3 mps 758 mmHg 74%
    03:00 +25°C° 0 mm 3 mps 758 mmHg 73%
    04:00 +24°C° 0 mm 2 mps 758 mmHg 72%
    05:00 +24°C° 0 mm 2 mps 758 mmHg 70%
    06:00 +26°C° 0 mm 2 mps 758 mmHg 63%
    07:00 +28°C° 0 mm 2 mps 758 mmHg 56%
    08:00 +30°C° 0 mm 1 mps 758 mmHg 48%
    09:00 +31°C° 0 mm 2 mps 758 mmHg 46%
    10:00 +33°C° 0 mm 3 mps 758 mmHg 44%
    11:00 +34°C° 0 mm 4 mps 758 mmHg 42%
    12:00 +34°C° 0 mm 5 mps 758 mmHg 43%
    13:00 +34°C° 0 mm 5 mps 757 mmHg 44%
    14:00 +33°C° 0 mm 5 mps 757 mmHg 46%
    15:00 +33°C° 0 mm 5 mps 757 mmHg 47%
    16:00 +33°C° 0 mm 4 mps 757 mmHg 48%
    17:00 +32°C° 0 mm 4 mps 757 mmHg 49%
    18:00 +30°C° 0 mm 4 mps 757 mmHg 57%
    19:00 +28°C° 0 mm 3 mps 757 mmHg 64%
    20:00 +26°C° 0 mm 3 mps 757 mmHg 72%
    21:00 +26°C° 0 mm 3 mps 757 mmHg 72%
    22:00 +26°C° 0 mm 3 mps 757 mmHg 72%
    23:00 +26°C° 0 mm 2 mps 757 mmHg 73%

    Tomorrow, 23 June, Saturday

    Time Temperature Precipitation Wind Pressure Humidity
    00:00 +26°C° 0 mm 2 mps 757 mmHg 72%
    01:00 +26°C° 0 mm 2 mps 757 mmHg 71%
    02:00 +26°C° 0 mm 2 mps 757 mmHg 70%
    03:00 +26°C° 0 mm 2 mps 757 mmHg 69%
    04:00 +25°C° 0 mm 2 mps 757 mmHg 68%
    05:00 +25°C° 0 mm 2 mps 757 mmHg 66%
    06:00 +27°C° 0 mm 2 mps 757 mmHg 60%
    07:00 +29°C° 0 mm 2 mps 757 mmHg 53%
    08:00 +31°C° 0 mm 2 mps 757 mmHg 46%
    09:00 +32°C° 0 mm 2 mps 757 mmHg 43%
    10:00 +34°C° 0 mm 3 mps 757 mmHg 40%
    11:00 +36°C° 0 mm 3 mps 757 mmHg 37%
    12:00 +36°C° 0 mm 4 mps 756 mmHg 38%
    13:00 +36°C° 0 mm 4 mps 756 mmHg 39%
    14:00 +36°C° 0 mm 5 mps 756 mmHg 40%
    15:00 +35°C° 0 mm 5 mps 756 mmHg 43%
    16:00 +34°C° 0 mm 5 mps 756 mmHg 46%
    17:00 +34°C° 0 mm 4 mps 756 mmHg 49%
    18:00 +32°C° 0.1 mm 4 mps 756 mmHg 55%
    19:00 +29°C° 0.1 mm 3 mps 756 mmHg 62%
    20:00 +28°C° 0.1 mm 2 mps 756 mmHg 69%
    21:00 +28°C° 0.1 mm 2 mps 756 mmHg 68%
    22:00 +27°C° 0.1 mm 2 mps 756 mmHg 68%
    23:00 +27°C° 0.1 mm 2 mps 756 mmHg 67%

    Day after tomorrow, 24 June, Sunday

    Time Temperature Precipitation Wind Pressure Humidity
    00:00 +27°C° 0 mm 2 mps 756 mmHg 66%
    01:00 +27°C° 0 mm 2 mps 756 mmHg 65%
    02:00 +27°C° 0 mm 1 mps 756 mmHg 64%
    03:00 +27°C° 0 mm 1 mps 756 mmHg 63%
    04:00 +27°C° 0 mm 1 mps 756 mmHg 63%
    05:00 +27°C° 0 mm 1 mps 756 mmHg 62%
    06:00 +28°C° 0 mm 1 mps 756 mmHg 56%
    07:00 +30°C° 0 mm 1 mps 756 mmHg 50%
    08:00 +32°C° 0 mm 1 mps 756 mmHg 44%
    09:00 +34°C° 0.1 mm 2 mps 756 mmHg 42%
    10:00 +35°C° 0.1 mm 2 mps 756 mmHg 40%
    11:00 +36°C° 0.1 mm 3 mps 756 mmHg 37%
    12:00 +36°C° 0.1 mm 3 mps 756 mmHg 38%
    13:00 +36°C° 0.1 mm 4 mps 756 mmHg 39%
    14:00 +36°C° 0.1 mm 4 mps 755 mmHg 40%
    15:00 +36°C° 0.1 mm 4 mps 755 mmHg 42%
    16:00 +35°C° 0.1 mm 4 mps 755 mmHg 44%
    17:00 +35°C° 0.1 mm 4 mps 755 mmHg 46%
    18:00 +33°C° 0.1 mm 3 mps 755 mmHg 53%
    19:00 +30°C° 0.1 mm 3 mps 755 mmHg 60%
    20:00 +29°C° 0.1 mm 2 mps 755 mmHg 67%
    21:00 +29°C° 0 mm 2 mps 755 mmHg 66%
    22:00 +29°C° 0 mm 2 mps 755 mmHg 65%
    23:00 +28°C° 0 mm 2 mps 755 mmHg 64%

    25 June, Monday

    Time Temperature Precipitation Wind Pressure Humidity
    00:00 +28°C° 0 mm 2 mps 755 mmHg 63%
    01:00 +28°C° 0 mm 2 mps 755 mmHg 61%
    02:00 +28°C° 0 mm 2 mps 755 mmHg 60%
    03:00 +28°C° 0 mm 1 mps 755 mmHg 59%
    04:00 +28°C° 0 mm 1 mps 755 mmHg 59%
    05:00 +28°C° 0 mm 1 mps 755 mmHg 58%
    06:00 +30°C° 0 mm 1 mps 755 mmHg 53%
    07:00 +32°C° 0 mm 1 mps 755 mmHg 48%
    08:00 +34°C° 0 mm 1 mps 755 mmHg 43%
    09:00 +36°C° 0 mm 2 mps 755 mmHg 40%
    10:00 +36°C° 0 mm 2 mps 755 mmHg 38%
    11:00 +37°C° 0 mm 3 mps 755 mmHg 36%
    12:00 +37°C° 0.1 mm 3 mps 755 mmHg 37%
    13:00 +37°C° 0.1 mm 4 mps 755 mmHg 38%
    14:00 +37°C° 0.1 mm 4 mps 755 mmHg 39%
    15:00 +37°C° 0.1 mm 4 mps 754 mmHg 41%
    16:00 +36°C° 0.1 mm 4 mps 754 mmHg 44%
    17:00 +35°C° 0.1 mm 4 mps 754 mmHg 46%
    18:00 +33°C° 0 mm 3 mps 755 mmHg 54%
    19:00 +31°C° 0 mm 3 mps 755 mmHg 61%
    20:00 +29°C° 0 mm 2 mps 755 mmHg 68%
    21:00 +29°C° 0 mm 2 mps 755 mmHg 68%
    22:00 +29°C° 0 mm 2 mps 755 mmHg 68%
    23:00 +28°C° 0 mm 2 mps 755 mmHg 68%

    26 June, Tuesday

    Time Temperature Precipitation Wind Pressure Humidity
    00:00 +28°C° 0 mm 2 mps 755 mmHg 67%
    01:00 +28°C° 0 mm 2 mps 755 mmHg 67%
    02:00 +28°C° 0 mm 2 mps 755 mmHg 67%
    03:00 +28°C° 0 mm 1 mps 754 mmHg 66%
    04:00 +27°C° 0 mm 1 mps 754 mmHg 65%
    05:00 +27°C° 0 mm 1 mps 754 mmHg 64%
    06:00 +29°C° 0 mm 1 mps 754 mmHg 58%
    07:00 +31°C° 0 mm 2 mps 754 mmHg 51%
    08:00 +34°C° 0 mm 2 mps 755 mmHg 45%
    09:00 +35°C° 0 mm 2 mps 755 mmHg 42%
    10:00 +36°C° 0 mm 3 mps 755 mmHg 40%
    11:00 +37°C° 0 mm 4 mps 755 mmHg 37%
    12:00 +37°C° 0 mm 4 mps 754 mmHg 37%
    13:00 +37°C° 0 mm 5 mps 754 mmHg 38%
    14:00 +37°C° 0 mm 5 mps 754 mmHg 38%
    15:00 +36°C° 0 mm 5 mps 754 mmHg 40%
    16:00 +35°C° 0 mm 5 mps 754 mmHg 43%
    17:00 +35°C° 0 mm 5 mps 754 mmHg 45%
    18:00 +33°C° 0 mm 4 mps 755 mmHg 53%
    19:00 +30°C° 0 mm 4 mps 755 mmHg 62%
    20:00 +28°C° 0 mm 4 mps 755 mmHg 70%
    21:00 +28°C° 0 mm 3 mps 755 mmHg 71%
    22:00 +27°C° 0 mm 3 mps 756 mmHg 72%
    23:00 +27°C° 0 mm 3 mps 756 mmHg 73%

    27 June, Wednesday

    Time Temperature Precipitation Wind Pressure Humidity
    00:00 +27°C° 0 mm 3 mps 756 mmHg 70%
    01:00 +26°C° 0 mm 3 mps 756 mmHg 67%
    02:00 +26°C° 0 mm 3 mps 755 mmHg 64%
    03:00 +26°C° 0 mm 3 mps 755 mmHg 61%
    04:00 +26°C° 0 mm 2 mps 756 mmHg 57%
    05:00 +26°C° 0 mm 2 mps 756 mmHg 53%
    06:00 +28°C° 0 mm 2 mps 756 mmHg 47%
    07:00 +31°C° 0 mm 2 mps 756 mmHg 40%
    08:00 +33°C° 0 mm 1 mps 756 mmHg 33%
    09:00 +35°C° 0 mm 2 mps 756 mmHg 31%
    10:00 +37°C° 0 mm 3 mps 756 mmHg 29%
    11:00 +38°C° 0 mm 4 mps 756 mmHg 26%
    12:00 +39°C° 0 mm 5 mps 756 mmHg 27%
    13:00 +39°C° 0 mm 5 mps 756 mmHg 27%
    14:00 +40°C° 0 mm 5 mps 755 mmHg 28%
    15:00 +39°C° 0 mm 5 mps 755 mmHg 30%
    16:00 +39°C° 0 mm 5 mps 755 mmHg 32%
    17:00 +37°C° 0 mm 5 mps 755 mmHg 34%
    18:00 +35°C° 0 mm 4 mps 756 mmHg 38%
    19:00 +34°C° 0 mm 4 mps 756 mmHg 43%
    20:00 +31°C° 0 mm 3 mps 756 mmHg 48%
    21:00 +31°C° 0 mm 3 mps 756 mmHg 46%
    22:00 +31°C° 0 mm 2 mps 756 mmHg 44%
    23:00 +30°C° 0 mm 2 mps 756 mmHg 42%
    Show more